TimeCST,TemperatureF,Dew PointF,Humidity,Sea Level PressureIn,VisibilityMPH,Wind Direction,Wind SpeedMPH,Gust SpeedMPH,PrecipitationIn,Events,Conditions,WindDirDegrees,DateUTC
12:53 AM,24.1,18.0,77,30.14,10.0,Calm,Calm,-,N/A,,Clear,0,2011-11-07 06:53:00
1:53 AM,21.0,16.0,81,30.14,10.0,NW,3.5,-,N/A,,Clear,320,2011-11-07 07:53:00
2:53 AM,21.9,16.0,78,30.15,10.0,Calm,Calm,-,N/A,,Clear,0,2011-11-07 08:53:00
3:53 AM,21.0,16.0,81,30.16,10.0,Calm,Calm,-,N/A,,Clear,0,2011-11-07 09:53:00
4:53 AM,19.9,16.0,85,30.18,10.0,NNW,4.6,-,N/A,,Clear,330,2011-11-07 10:53:00
5:53 AM,21.9,18.0,85,30.21,10.0,NW,6.9,-,N/A,,Clear,320,2011-11-07 11:53:00
6:53 AM,21.9,17.1,82,30.22,10.0,Calm,Calm,-,N/A,,Clear,0,2011-11-07 12:53:00
7:53 AM,30.0,19.9,66,30.23,10.0,Calm,Calm,-,N/A,,Clear,0,2011-11-07 13:53:00
8:53 AM,35.6,21.2,56,30.18,10.0,NE,3.5,-,N/A,,Clear,50,2011-11-07 14:53:00
9:53 AM,43.0,21.0,42,30.25,10.0,NE,8.1,-,N/A,,Partly Cloudy,50,2011-11-07 15:53:00
10:53 AM,46.4,21.2,37,30.18,10.0,East,9.2,-,N/A,,Clear,80,2011-11-07 16:53:00
11:53 AM,48.0,19.9,33,30.22,10.0,East,9.2,-,N/A,,Clear,100,2011-11-07 17:53:00
12:53 PM,50.0,19.9,31,30.19,10.0,ENE,6.9,-,N/A,,Clear,60,2011-11-07 18:53:00
1:53 PM,50.0,19.9,31,30.18,10.0,ENE,9.2,-,N/A,,Clear,60,2011-11-07 19:53:00
2:53 PM,50.0,21.9,33,30.16,10.0,ENE,10.4,-,N/A,,Clear,70,2011-11-07 20:53:00
3:53 PM,48.9,21.0,33,30.16,10.0,ENE,9.2,-,N/A,,Mostly Cloudy,60,2011-11-07 21:53:00
4:53 PM,46.4,21.2,37,30.10,10.0,ENE,8.1,-,N/A,,Partly Cloudy,60,2011-11-07 22:53:00
5:53 PM,45.0,21.9,40,30.17,10.0,ENE,5.8,-,N/A,,Overcast,70,2011-11-07 23:53:00
6:53 PM,44.1,23.0,43,30.19,10.0,East,4.6,-,N/A,,Overcast,80,2011-11-08 00:53:00
7:53 PM,42.8,21.2,42,30.13,10.0,NE,4.6,-,N/A,,Overcast,50,2011-11-08 01:53:00
8:53 PM,42.1,21.9,45,30.19,10.0,ENE,4.6,-,N/A,,Overcast,60,2011-11-08 02:53:00
9:53 PM,39.2,21.2,49,30.13,10.0,NE,4.6,-,N/A,,Overcast,50,2011-11-08 03:53:00
10:53 PM,37.0,21.9,54,30.16,10.0,North,5.8,-,N/A,,Overcast,360,2011-11-08 04:53:00
11:53 PM,37.9,21.9,53,30.15,10.0,Calm,Calm,-,N/A,,Overcast,0,2011-11-08 05:53:00